TimeCST,TemperatureF,Dew PointF,Humidity,Sea Level PressureIn,VisibilityMPH,Wind Direction,Wind SpeedMPH,Gust SpeedMPH,PrecipitationIn,Events,Conditions,WindDirDegrees,DateUTC
12:14 AM,12.2,1.4,62,29.73,10.0,NW,20.7,26.5,N/A,,Overcast,320,2013-02-19 06:14:00
12:33 AM,10.4,1.4,67,29.76,10.0,NNW,13.8,19.6,N/A,Snow,Light Snow,330,2013-02-19 06:33:00
12:53 AM,10.4,1.4,67,29.78,10.0,NW,9.2,19.6,N/A,Snow,Light Snow,320,2013-02-19 06:53:00
1:14 AM,10.4,-0.4,62,29.78,10.0,WNW,10.4,-,N/A,,Overcast,300,2013-02-19 07:14:00
1:33 AM,10.4,-0.4,62,29.78,10.0,NW,12.7,25.3,N/A,,Overcast,310,2013-02-19 07:33:00
1:54 AM,10.4,-0.4,62,29.79,10.0,WNW,13.8,20.7,N/A,,Overcast,300,2013-02-19 07:54:00
2:14 AM,8.6,-0.4,67,29.80,10.0,North,18.4,26.5,N/A,,Overcast,350,2013-02-19 08:14:00
2:33 AM,8.6,-2.2,62,29.81,7.0,WNW,19.6,25.3,N/A,,Overcast,300,2013-02-19 08:33:00
2:53 AM,8.6,-0.4,67,29.82,10.0,North,15.0,25.3,N/A,,Overcast,350,2013-02-19 08:53:00
3:14 AM,6.8,-2.2,67,29.83,4.0,NNW,18.4,35.7,N/A,Snow,Light Snow,330,2013-02-19 09:14:00
3:33 AM,6.8,-4.0,61,29.85,10.0,NNW,13.8,28.8,N/A,,Overcast,330,2013-02-19 09:33:00
3:53 AM,5.0,-5.8,61,29.85,10.0,WNW,15.0,24.2,N/A,,Overcast,300,2013-02-19 09:53:00
4:14 AM,5.0,-4.0,66,29.86,10.0,NNW,17.3,26.5,N/A,,Overcast,340,2013-02-19 10:14:00
4:33 AM,3.2,-5.8,66,29.86,10.0,NW,15.0,25.3,N/A,,Overcast,310,2013-02-19 10:33:00
4:53 AM,3.2,-7.6,61,29.88,10.0,WNW,18.4,23.0,N/A,,Overcast,300,2013-02-19 10:53:00
5:14 AM,3.2,-7.6,61,29.89,10.0,NNW,25.3,32.2,N/A,,Overcast,330,2013-02-19 11:14:00
5:53 AM,1.4,-7.6,66,29.91,10.0,WNW,13.8,26.5,N/A,,Overcast,300,2013-02-19 11:53:00
6:14 AM,1.4,-9.4,61,29.91,10.0,NW,17.3,29.9,N/A,,Overcast,310,2013-02-19 12:14:00
6:33 AM,-0.4,-9.4,66,29.93,10.0,NW,19.6,27.6,N/A,,Overcast,320,2013-02-19 12:33:00
6:53 AM,-0.4,-11.2,60,29.94,10.0,NW,20.7,28.8,N/A,,Overcast,310,2013-02-19 12:53:00
7:14 AM,-0.4,-11.2,60,29.96,10.0,NW,15.0,19.6,N/A,,Overcast,310,2013-02-19 13:14:00
7:33 AM,-0.4,-11.2,60,29.97,10.0,NW,9.2,23.0,N/A,,Overcast,310,2013-02-19 13:33:00
7:53 AM,-0.4,-11.2,60,29.98,10.0,NW,16.1,23.0,N/A,,Overcast,320,2013-02-19 13:53:00
8:14 AM,-0.4,-11.2,60,29.99,10.0,NW,13.8,23.0,N/A,,Overcast,310,2013-02-19 14:14:00
8:33 AM,-0.4,-11.2,60,29.99,10.0,NW,16.1,20.7,N/A,,Overcast,310,2013-02-19 14:33:00
8:53 AM,-0.4,-11.2,60,30.00,10.0,NW,17.3,23.0,N/A,,Overcast,310,2013-02-19 14:53:00
9:33 AM,-0.4,-11.2,60,30.02,10.0,NW,17.3,21.9,N/A,,Overcast,320,2013-02-19 15:33:00
9:53 AM,1.4,-11.2,56,30.02,10.0,WNW,15.0,25.3,N/A,,Overcast,300,2013-02-19 15:53:00
10:13 AM,1.4,-9.4,61,30.03,10.0,NW,18.4,24.2,N/A,,Overcast,310,2013-02-19 16:13:00
10:33 AM,1.4,-9.4,61,30.03,10.0,NW,16.1,-,N/A,,Overcast,310,2013-02-19 16:33:00
10:54 AM,3.2,-7.6,61,30.04,10.0,WNW,16.1,-,N/A,,Mostly Cloudy,300,2013-02-19 16:54:00
11:13 AM,3.2,-7.6,61,30.04,10.0,WNW,17.3,-,N/A,,Mostly Cloudy,300,2013-02-19 17:13:00
11:33 AM,3.2,-9.4,56,30.05,10.0,NW,16.1,21.9,N/A,,Overcast,310,2013-02-19 17:33:00
11:53 AM,3.2,-9.4,56,30.06,10.0,NW,16.1,-,N/A,,Overcast,320,2013-02-19 17:53:00
12:13 PM,5.0,-7.6,56,30.06,10.0,NW,21.9,-,N/A,,Mostly Cloudy,310,2013-02-19 18:13:00
12:34 PM,5.0,-9.4,52,30.06,10.0,NW,21.9,25.3,N/A,,Mostly Cloudy,320,2013-02-19 18:34:00
12:53 PM,5.0,-9.4,52,30.07,10.0,NW,17.3,29.9,N/A,,Overcast,320,2013-02-19 18:53:00
1:13 PM,6.8,-7.6,52,30.07,10.0,NW,18.4,27.6,N/A,,Mostly Cloudy,320,2013-02-19 19:13:00
1:33 PM,6.8,-7.6,52,30.08,10.0,NW,16.1,25.3,N/A,,Mostly Cloudy,310,2013-02-19 19:33:00
1:54 PM,6.8,-7.6,52,30.09,10.0,NW,16.1,-,N/A,,Mostly Cloudy,310,2013-02-19 19:54:00
2:13 PM,6.8,-5.8,56,30.10,10.0,NW,18.4,-,N/A,,Mostly Cloudy,310,2013-02-19 20:13:00
2:33 PM,8.6,-7.6,48,30.11,10.0,NW,17.3,20.7,N/A,,Scattered Clouds,310,2013-02-19 20:33:00
2:53 PM,8.6,-5.8,52,30.11,10.0,NW,18.4,24.2,N/A,,Clear,310,2013-02-19 20:53:00
3:13 PM,8.6,-7.6,48,30.13,10.0,NW,16.1,-,N/A,,Clear,320,2013-02-19 21:13:00
3:33 PM,8.6,-7.6,48,30.15,10.0,NW,15.0,-,N/A,,Clear,310,2013-02-19 21:33:00
3:54 PM,10.4,-5.8,48,30.16,10.0,NW,16.1,24.2,N/A,,Clear,310,2013-02-19 21:54:00
4:13 PM,10.4,-5.8,48,30.16,10.0,NW,19.6,26.5,N/A,,Clear,310,2013-02-19 22:13:00
4:33 PM,10.4,-5.8,48,30.17,10.0,NW,12.7,24.2,N/A,,Clear,310,2013-02-19 22:33:00
4:54 PM,8.6,-5.8,52,30.18,10.0,NW,17.3,-,N/A,,Clear,310,2013-02-19 22:54:00
5:13 PM,8.6,-5.8,52,30.20,10.0,NW,15.0,-,N/A,,Clear,310,2013-02-19 23:13:00
5:33 PM,8.6,-5.8,52,30.20,10.0,NW,18.4,26.5,N/A,,Clear,310,2013-02-19 23:33:00
6:33 PM,8.6,-5.8,52,30.24,10.0,NW,12.7,20.7,N/A,,Clear,320,2013-02-20 00:33:00
6:53 PM,6.8,-5.8,56,30.25,10.0,NW,11.5,18.4,N/A,,Clear,320,2013-02-20 00:53:00
7:13 PM,8.6,-5.8,52,30.26,10.0,NNW,15.0,24.2,N/A,,Clear,330,2013-02-20 01:13:00
7:53 PM,8.6,-2.2,62,30.26,10.0,NNW,16.1,23.0,N/A,,Clear,330,2013-02-20 01:53:00
8:14 PM,8.6,-2.2,62,30.27,10.0,North,15.0,18.4,N/A,,Clear,350,2013-02-20 02:14:00
8:34 PM,8.6,-2.2,62,30.28,10.0,NNW,17.3,20.7,N/A,,Clear,330,2013-02-20 02:34:00
8:53 PM,8.6,-2.2,62,30.28,10.0,North,18.4,25.3,N/A,,Clear,350,2013-02-20 02:53:00
9:14 PM,8.6,-2.2,62,30.29,10.0,NNW,17.3,26.5,N/A,,Clear,330,2013-02-20 03:14:00
9:34 PM,8.6,-2.2,62,30.30,10.0,North,15.0,25.3,N/A,,Clear,360,2013-02-20 03:34:00
9:53 PM,6.8,-2.2,67,30.30,10.0,North,17.3,23.0,N/A,,Clear,360,2013-02-20 03:53:00
10:14 PM,6.8,-2.2,67,30.31,10.0,NNW,18.4,24.2,N/A,,Clear,340,2013-02-20 04:14:00
10:34 PM,6.8,-2.2,67,30.31,10.0,NNW,17.3,23.0,N/A,,Clear,340,2013-02-20 04:34:00
10:53 PM,6.8,-2.2,67,30.32,10.0,NNW,15.0,-,N/A,,Clear,340,2013-02-20 04:53:00
11:14 PM,6.8,-2.2,67,30.33,10.0,NNW,17.3,20.7,N/A,,Clear,340,2013-02-20 05:14:00
11:33 PM,6.8,-2.2,67,30.34,10.0,NNW,13.8,-,N/A,,Clear,340,2013-02-20 05:33:00
11:53 PM,6.8,-2.2,67,30.34,10.0,NNW,15.0,-,N/A,,Clear,330,2013-02-20 05:53:00